www.pogodaiklimat.ru

Погода и климат >> Архив погоды >> Монголия >> Улыгайин Дуганг


ПОГОДА в Улыгайин Дуганг

  • Прогноз погоды в Улыгайин Дуганг
  • Монитор погоды в Улыгайин Дуганг

АРХИВ ПОГОДЫ в Улыгайин Дуганг

Время (UTC), дата Ветер
(напр.,м/с)
 
Видим.   Явления Облачность Т
(С)
Тd
(С)
f
(%)
Тe
(С)
Тes
(С)
Комфортность P
(гПа)
Po
(гПа)
Тmin
(С)
Tmax
(С)
R
(мм)
R24
(мм)
S
(см)
00 9.06 штиль 0 50 км 5/0
[Ac inh Ci fib]
+17.7 +3.2 38 +18 +22 1009.1 931.9 +9.7
03 9.06 СЗ 1 50 км 3/1 1000 м
[Cu hum Ci sp]
+26.5 +2.4 21 +25 +40 комфорт 1005.7 930.9
06 9.06 З 1 50 км 3/3 1000 м
[Cu med, cong]
+31.3 +0.6 14 +28 +42 жарко 1002.7 929.3
09 9.06 С 1 50 км 4/3 1000 м
[Cu med, cong Ci fib]
+32.6 -0.4 12 +29 +35 жарко 1000.7 927.7
12 9.06 штиль 0 50 км 6/3 1000 м
[Sc Ac lent Ci fib]
+30.1 +0.6 15 +27 +28 жарко 1001.2 927.6 +33.3
15 9.06 СВ 2 н/о 6/0
[Ac As Ci]
+20.2 +3.8 34 +21 +21 комфорт 1005.0 928.8
18 9.06 штиль 0 н/о 5/0
[Ac lent]
+15.3 +3.1 44 +15 +15 1006.2 928.6
21 9.06 штиль 0 50 км 6/0
[Ac lent Cs]
+11.6 +3.4 57 +11 +11 1007.5 928.9
00 10.06 штиль 0 50 км 8/0
[Ac As]
+15.9 +4.6 47 +16 +19 1005.8 928.4 +11.6
03 10.06 З 3 50 км 9/6 600 м
[Sc Ac As]
+26.2 +7.3 30 +26 +28 жарко 1002.9 928.3
06 10.06 В 1 50 км в посл. час дождь 9/9 600 м
[Cu Sc]
+25.6 +9.0 35 +26 +28 жарко 1001.9 927.2
09 10.06 ЮВ 3 50 км 9/9 600 м
[Cu Sc]
+26.9 +7.9 30 +27 +27 жарко 998.6 924.5
12 10.06 ЮВ 4 50 км 8/0
[Ac As]
+27.8 +6.0 25 +27 +27 жарко 996.0 922.3 +28.3 0.0
15 10.06 штиль 0 н/о 9/9 600 м
[Sc]
+23.2 +6.5 34 +24 +24 комфорт 996.7 921.8
18 10.06 штиль 0 н/о 9/9 600 м
[Sc]
+19.0 +9.5 54 +20 +20 998.2 922.1
21 10.06 СВ 1 50 км 9/0
[Ac As]
+16.8 +10.4 66 +18 +18 1000.5 923.8
00 11.06 З 3 50 км 3/0
[Ac lent]
+23.8 +6.6 33 +24 +27 комфорт 1000.6 925.6 +15.8
03 11.06 З 7
{14}
50 км 3/1 1000 м
[Cu med, cong Ci sp]
+26.7 +1.2 19 +25 +29 комфорт 1000.3 926.0
06 11.06 З 6
{15}
50 км 5/3 1000 м
[Cu med, cong Ac lent Ci fib]
+28.5 +1.9 18 +26 +30 жарко 1000.4 926.5
09 11.06 С 12-12
{20}
10 км пыльная буря {метель} 8/4 600 м
[Cb calv Ac lent]
+22.0 +5.4 34 +22 +22 комфорт 1005.0 929.2
12 11.06 С 5
{18}
50 км {метель} 8/0
[Ac cast Cc]
+18.7 +5.9 43 +19 +19 1010.0 933.0 +29.7
15 11.06 ЮЗ 1 н/о 3/0
[Ac lent]
+14.4 +6.2 58 +15 +15 1013.5 935.1
18 11.06 Ю 1 н/о ясно +9.5 +5.5 76 +9 +9 1016.5 936.6
21 11.06 Ю 1 50 км 1/0
[Ci fib]
+6.5 +4.2 85 +5 +5 1018.9 938.0
00 12.06 С 2 50 км 5/0
[Ac trans]
+12.6 +6.0 64 +12 +16 1018.5 939.2 +6.1
03 12.06 СЗ 3 50 км 9/9 600 м
[Cu Sc]
+20.4 +6.0 39 +22 +23 комфорт 1015.9 938.9
06 12.06 С 2 50 км 8/6 600 м
[Cu med, cong Cc]
+22.0 +5.0 33 +22 +28 комфорт 1013.9 937.5
09 12.06 С 2 50 км 8/5 600 м
[Cu med, cong Ci]
+22.9 +3.9 29 +23 +26 комфорт 1012.3 936.2
12 12.06 С 1 50 км 4/0
[Ci]
+22.8 +2.8 27 +22 +23 комфорт 1011.5 935.4 +23.6
15 12.06 ЮВ 1 н/о 3/0
[Ac lent Ci fib]
+14.9 +4.0 48 +16 +16 1014.3 936.0
18 12.06 штиль 0 н/о ясно +9.1 +3.7 69 +9 +9 1016.5 936.5
21 12.06 штиль 0 50 км 1/0
[Ci fib]
+6.6 +3.2 79 +6 +6 1017.4 936.6
00 13.06 штиль 0 50 км 1/0
[Ci fib]
+13.4 +5.1 57 +13 +20 1015.0 936.3 +6.5
03 13.06 С 1 50 км 3/0
[Ci]
+23.9 +5.3 30 +24 +41 комфорт 1010.6 934.8
06 13.06 З 2 50 км 3/3 600 м
[Cu hum Ci fib]
+28.5 +3.4 20 +27 +38 жарко 1006.4 922.1
09 13.06 З 3 50 км 8/3 600 м
[Cu hum Cs]
+29.9 -0.5 14 +27 +31 жарко 1004.3 930.5
12 13.06 штиль 0 50 км 9/0
[Ac As Ci fib]
+28.2 +1.6 18 +26 +26 жарко 1004.4 930.2 +30.2
15 13.06 ЮЗ 2 н/о 6/0
[Cs]
+18.4 +6.6 46 +19 +19 1007.7 930.8
18 13.06 Ю 1 н/о 3/0
[Ci]
+13.7 +6.8 63 +14 +14 1008.7 930.5
21 13.06 штиль 0 50 км 8/0
[Ac As]
+11.1 +7.4 78 +11 +11 1009.3 930.3
00 14.06 штиль 0 50 км 9/9 1000 м
[Sc]
+15.2 +8.2 63 +15 +16 1007.5 929.8 +10.6
03 14.06 ЮЗ 2 50 км 9/5 600 м
[Sc Ac cast]
+23.9 +7.1 34 +24 +28 комфорт 1003.3 928.1
06 14.06 В 3 50 км 9/5 600 м
[Sc Ac lent Cc]
+30.3 +5.6 21 +29 +33 жарко 999.4 926.0
09 14.06 В 4
{11}
50 км 8/5 600 м
[Sc Ac As]
+32.3 +2.4 15 +29 +31 жарко 997.2 924.4
12 14.06 В 4 50 км 10/10 600 м
[Sc]
+28.1 +5.6 24 +27 +27 жарко 998.1 924.3 +34.1
15 14.06 В 3 н/о 9/0
[Ac As]
+25.8 +5.4 27 +25 +25 комфорт 999.2 924.8
18 14.06 Ю 1 н/о 6/0
[Ac trans Ci]
+20.7 +7.7 43 +23 +23 комфорт 999.1 923.4
21 14.06 Ю 3 50 км 9/9 600 м
[Sc]
+19.8 +7.0 43 +21 +21 комфорт 999.4 923.5
00 15.06 ЮЗ 1 50 км 10/10 600 м
[Sc]
+21.7 +8.2 42 +23 +23 комфорт 999.8 924.3 +19.3
03 15.06 Ю 8
{12}
20 км слаб. дождь 10/10 600 м
[Sc As op]
+21.4 +10.6 50 +23 +23 комфорт 1001.1 925.4
06 15.06 ЮЗ 3 20 км слаб. дождь 10/10 600 м
[Sc As op]
+21.0 +11.3 54 +24 +24 комфорт 1000.6 924.9
09 15.06 В 1 50 км {дождь} 8/8 600 м
[Cu Sc]
+25.8 +7.4 31 +26 +27 жарко 997.1 922.8
12 15.06 ЮВ 3
{12}
50 км {дождь} 9/4 600 м
[Sc Ac cast Cs]
+25.4 +4.5 26 +25 +25 комфорт 997.6 923.2 +26.7 0.0
15 15.06 ЮВ 1 н/о 8/8 600 м
[Sc]
+20.8 +7.8 43 +23 +23 комфорт 999.9 924.2
18 15.06 С 1 н/о 9/5 600 м
[Sc Ac As]
+16.9 +7.3 53 +18 +18 1000.9 924.1
21 15.06 штиль 0 50 км 9/9 600 м
[Cu Sc]
+15.0 +7.8 62 +15 +15 1001.1 923.8

 

Местоположение метеостанции Улыгайин Дуганг (Монголия): широта 49.83 долгота 107.73 высота над уровнем моря 883 м.

В архиве по умолчанию представлена погода в Улыгайин Дуганг за последнюю неделю. Архивные данные за месяц целиком и за предыдущие месяцы, начиная с января 2011 года, Вы можете получить, выбрав интересующий диапазон дат из раскрывающегося списка и нажав кнопку "Ввод!".


*Определитесь, кто Вы:
робот инопланетянин человек

Внимание! Время в таблицах - всемирное. Для получения местного времени необходимо прибавить поправку, которая равна 8 ч.

Смотрите также архив погоды в соседних городах и на ближайших метеорологических станциях:

Погода в Хадатыне (Монголия) (57 км)
Погода в Бичуре (Бурятия, Россия) (87 км)
Погода в Мензе (Забайкальский край, Россия) (89 км)
Погода в Красном Чикое (Забайкальский край, Россия) (92 км)
Погода в Кяхте (Бурятия, Россия) (112 км)
Погода в Мухоршибири (Бурятия, Россия) (134 км)
Погода в Баруунхараа (Монголия) (158 км)
Погода в Новоселенгинске (Бурятия, Россия) (162 км)
Погода в Петровском Заводе (Забайкальский край, Россия) (182 км)
Погода в Черемхово (Забайкальский край, Россия) (188 км)

Пояснения к столбцам:

Ветер - указаны скорость ветра в м/с - средняя за 10 мин, порывы в срок и между сроками (в фигурных скобках) и направление, откуда дует ветер: С - северный, СВ - северо-восточный, В - восточный, ЮВ - юго-восточный, Ю - южный, ЮЗ - юго-западный, З - западный, СЗ - северо-западный.
Видимость - горизонтальная дальность видимости в метрах или километрах. При видимости от 1 до 10 км при отсутствии осадков обычно наблюдается дымка, при ухудшении видимости до 1 км и менее - туман. В сухую погоду видимость может ухудшаться дымом, пылью или мглою.
Явления - указаны атмосферные явления, наблюдавшиеся в срок или в последний час перед сроком; фигурными скобками обозначены явления, наблюдавшиеся между сроками (за 1-3 часа до срока); квадратными скобками обозначены град или гололедные отложения с указанием их диаметра в мм.
Облачность - указаны через наклонную черту общая и нижняя облачность в баллах и высота нижней границы облаков в метрах; квадратными скобками обозначены формы облаков: Ci - перистые, Cs - перисто-слоистые, Cc - перисто-кучевые, Ac - высококучевые, As - высокослоистые, Sc - слоисто-кучевые, Ns - слоисто-дождевые, Cu - кучевые, Cb - кучево-дождевые. Подробнее классификацию облаков см. в Атласе облаков (PDF).
T - Температура воздуха - температура, измеренная на высоте 2 м над землей.
Td - Температура точки росы - температура, при понижении до которой содержащийся в воздухе водяной пар достигнет насыщения.
f - Относительная влажность воздуха - влажноcть воздуха, измеренная на высоте 2 м над землей.
Te - Эффективная температура - температура, которую ощущает одетый по сезону человек в тени. Характеристика душности погоды. При расчете учитывается влияние влажности воздуха и скорости ветра на теплоощущения человека.
Tes - Эффективная температура на солнце - температура, которую ощущает человек, с поправкой на солнечный нагрев. Характеристика знойности погоды. Зависит от высоты солнца над горизонтом, облачности и скорости ветра. Ночью, в пасмурную погоду, а также при ветре 12 м/с и более поправка равна нулю.
P - Атмосферное давление - приведенное к уровню моря атмосферное давление.
Po - Атмосферное давление - измеренное на уровне метеостанции атмосферное давление.
Tmin - Минимальная температура - минимум температуры воздуха на высоте 2 м над землей.
Tmax - Максимальная температура - максимум температуры воздуха на высоте 2 м над землей.
R - Количество осадков - Количество выпавших осадков за период времени, мм. При наведении курсора мыши на число - период времени, за который выпало указанное количество осадков.
R24 - Количество осадков - Количество выпавших осадков за 24 часа, мм.
S - Снежный покров - Высота снежного покрова, см. При наведении курсора мыши на число - состояние снежного покрова и степень покрытия местности в баллах.